McCook, NE

1:50 PM CDT on September 26, 2017 (GMT -0500)
McCook Municipal

Weather History for KMCK - April, 2015

Change the Weather History Date:

Friday, April 3, 2015

  Actual Average Record
Temperature  
Mean Temperature 43 °F 45 °F  
Max Temperature 54 °F 60 °F 90 °F (1929)
Min Temperature 32 °F 30 °F 10 °F (1936)
Degree Days  
Heating Degree Days 22    
Moisture  
Dew Point 27 °F    
Average Humidity 65    
Maximum Humidity 96    
Minimum Humidity 21    
Precipitation  
Precipitation 0.02 in 0.05 in 1.06 in (1984)
Month to date precipitation 0.34 0.16  
Year to date precipitation 0.71 2.65  
Sea Level Pressure  
Sea Level Pressure 30.29 in    
Wind  
Wind Speed 11 mph (NW)    
Max Wind Speed 20 mph    
Max Gust Speed 25 mph    
Visibility 9 miles    
Events Rain , Snow    
T = Trace of Precipitation, MM = Missing Value Source: NWS Daily Summary

Daily Weather History Graph

Daily Weather History Graph

Search for Another Location

Airport or City:

Trip Planner

Search our weather history database for the weather conditions in past years. The results will help you decide how hot, cold, wet, or windy it might be!

Date:

Astronomy

Apr. 03, 2015 Rise Set
Actual Time 7:23 AM CDT 8:08 PM CDT
Civil Twilight 6:55 AM CDT 8:36 PM CDT
Nautical Twilight 6:23 AM CDT 9:08 PM CDT
Astronomical Twilight 5:49 AM CDT 9:42 PM CDT
Moon 7:38 PM CDT (4/3) 6:57 AM CDT (4/3)
Length of Visible Light 13h 40m
Length of Day
12h 45m
Waxing Gibbous, 99% of the Moon is Illuminated
Apr 3
Waxing Gibbous
Apr 4
Full
Apr 11
Last Quarter
Apr 18
New
Apr 25
First Quarter

Hourly Weather History & Observations

Time (CDT) Temp. Windchill Dew Point Humidity Pressure Visibility Wind Dir Wind Speed Gust Speed Precip Events Conditions
12:02 AM 34.0 °F 24.6 °F 32.0 °F 92% 30.13 in 3.0 mi North 13.8 mph - 0.02 in Snow Light Snow
12:09 AM 34.0 °F 25.5 °F 32.0 °F 92% 30.14 in 5.0 mi North 11.5 mph - 0.03 in Snow Light Snow
12:23 AM 34.0 °F 25.0 °F 32.0 °F 92% 30.12 in 8.0 mi North 12.7 mph - 0.05 in Snow Light Snow
12:53 AM 34.0 °F 27.2 °F 32.0 °F 92% 30.15 in 7.0 mi North 8.1 mph - 0.07 in Snow Light Snow
1:13 AM 34.0 °F 26.0 °F 32.0 °F 92% 30.15 in 10.0 mi NNW 10.4 mph - 0.01 in   Overcast
1:21 AM 34.0 °F 26.6 °F 32.0 °F 92% 30.16 in 10.0 mi NNW 9.2 mph - 0.01 in   Overcast
1:53 AM 34.0 °F 27.2 °F 33.1 °F 96% 30.19 in 9.0 mi NW 8.1 mph - 0.02 in Rain Light Rain
2:53 AM 36.0 °F 30.3 °F 33.1 °F 89% 30.18 in 10.0 mi North 6.9 mph - 0.00 in   Overcast
3:53 AM 36.0 °F 28.5 °F 33.1 °F 89% 30.21 in 10.0 mi NW 10.4 mph - N/A   Overcast
4:53 AM 36.0 °F 29.0 °F 32.0 °F 86% 30.24 in 10.0 mi NNW 9.2 mph - N/A   Scattered Clouds
5:53 AM 35.1 °F 28.6 °F 30.0 °F 82% 30.27 in 10.0 mi North 8.1 mph - N/A   Partly Cloudy
6:53 AM 32.0 °F 25.6 °F 28.0 °F 85% 30.31 in 10.0 mi NW 6.9 mph - N/A   Clear
7:53 AM 32.0 °F 23.6 °F 27.0 °F 82% 30.34 in 10.0 mi NNW 10.4 mph - N/A   Clear
8:53 AM 33.1 °F 23.9 °F 26.1 °F 75% 30.37 in 10.0 mi NNW 12.7 mph - N/A   Clear
9:53 AM 35.1 °F 25.2 °F 26.1 °F 70% 30.40 in 10.0 mi NNW 16.1 mph - N/A   Clear
10:53 AM 37.4 °F 28.5 °F 26.6 °F 65% 30.36 in 10.0 mi NNW 15.0 mph - N/A   Clear
11:53 AM 42.1 °F 34.9 °F 28.0 °F 58% 30.43 in 10.0 mi NNW 13.8 mph 20.7 mph N/A   Clear
12:53 PM 46.0 °F 38.5 °F 27.0 °F 47% 30.41 in 10.0 mi NNW 19.6 mph 25.3 mph N/A   Clear
1:53 PM 48.0 °F - 24.1 °F 39% 30.39 in 10.0 mi NNW 16.1 mph 25.3 mph N/A   Clear
2:53 PM 52.0 °F - 17.1 °F 25% 30.37 in 10.0 mi NNW 18.4 mph 24.2 mph N/A   Clear
3:53 PM 53.1 °F - 14.0 °F 21% 30.34 in 10.0 mi North 16.1 mph 21.9 mph N/A   Clear
4:53 PM 53.1 °F - 18.0 °F 25% 30.33 in 10.0 mi NNW 12.7 mph - N/A   Clear
5:53 PM 53.1 °F - 18.0 °F 25% 30.32 in 10.0 mi WNW 17.3 mph 20.7 mph N/A   Clear
6:53 PM 52.0 °F - 19.0 °F 27% 30.33 in 10.0 mi West 10.4 mph - N/A   Clear
7:53 PM 48.9 °F - 21.0 °F 33% 30.32 in 10.0 mi WSW 6.9 mph - N/A   Clear
8:53 PM 46.0 °F 43.1 °F 23.0 °F 40% 30.33 in 10.0 mi SW 5.8 mph - N/A   Clear
9:53 PM 42.1 °F 39.2 °F 24.1 °F 49% 30.34 in 10.0 mi SW 4.6 mph - N/A   Clear
10:53 PM 37.0 °F 31.6 °F 26.1 °F 65% 30.35 in 10.0 mi SW 6.9 mph - N/A   Clear
11:53 PM 36.0 °F 28.5 °F 27.0 °F 70% 30.34 in 10.0 mi WSW 10.4 mph - N/A   Clear